Location: Bratislava
(48.1500°N, 17.1170°E)
Time: 21:08:37
(UTC+02:00)

ISS - Visible Passes

Search period start: 22 September 2018 00:00
Search period end: 02 October 2018 00:00
Orbit: 403 x 408 km, 51.6° (Epoch: 23 September)

Date Brightness Start Highest point End Pass type
(mag) Time Alt. Az. Time Alt. Az. Time Alt. Az.
22 Sep -2.4 20:26:51 10° SSW 20:28:53 25° S 20:28:53 25° S visible
23 Sep -2.2 19:35:43 10° S 19:38:05 18° SE 19:39:38 14° ESE visible
23 Sep -1.8 21:10:55 10° WSW 21:12:21 24° WSW 21:12:21 24° WSW visible
24 Sep -3.8 20:19:07 10° SW 20:22:22 58° SSE 20:22:54 49° ESE visible
25 Sep -3.1 19:27:29 10° SW 19:30:33 36° SE 19:33:18 12° E visible
25 Sep -2.4 21:03:42 10° W 21:05:59 39° WNW 21:05:59 39° WNW visible
26 Sep -3.8 20:11:43 10° WSW 20:15:01 81° NNW 20:16:15 35° ENE visible
26 Sep -0.5 21:48:35 10° WNW 21:48:56 12° WNW 21:48:56 12° WNW visible
27 Sep -3.8 19:19:48 10° WSW 19:23:05 69° SSE 19:26:22 10° ENE visible
27 Sep -2.5 20:56:32 10° W 20:59:06 40° NW 20:59:06 40° NW visible
28 Sep -3.3 20:04:27 10° W 20:07:42 54° NNW 20:09:12 27° NE visible
28 Sep -0.5 21:41:20 10° WNW 21:41:52 14° WNW 21:41:52 14° WNW visible
29 Sep -3.6 19:12:24 10° WSW 19:15:41 71° NNW 19:18:59 10° ENE visible
29 Sep -2.5 20:49:18 10° WNW 20:51:54 38° NNW 20:51:54 38° NNW visible
30 Sep -3.0 19:57:13 10° W 20:00:24 44° N 20:01:54 25° NE visible
30 Sep -0.6 21:33:57 10° WNW 21:34:34 15° WNW 21:34:34 15° WNW visible
01 Oct -3.2 19:05:05 10° W 19:08:19 50° N 19:11:34 10° ENE visible
01 Oct -2.7 20:41:57 10° WNW 20:44:32 41° NNW 20:44:32 41° NNW visible
